Theta_e
309 309 311 312 316 318 317 316 314 315 315 313 314 314 314 317 319 318 318 321 318 329 337 336 330 329 337 338 338 337 340 344 342 336 333 345 350 349 349 345 347 347 343 339 336 335 334 333 333 334 335 334 333 330 324 319 318 318 321 323 322 319 317 313 310 310 310 311 312 312 312 311 314 318 320 322 321 319 320 322 324 326 330 335 337 338 338 337 337 337 336 336 336 335 333 328 321
309 310 311 314 317 318 319 317 314 315 314 312 313 314 315 316 318 319 317 322 327 338 343 341 338 337 341 338 339 339 341 344 340 342 346 349 349 349 349 346 348 347 342 339 337 336 335 333 333 334 335 334 333 331 326 320 318 317 317 318 319 317 313 310 310 310 310 311 312 312 312 312 314 318 321 322 322 320 320 324 327 330 335 337 337 337 338 338 337 336 336 336 336 334 330 323 316
309 310 312 316 317 317 320 317 314 314 313 311 312 314 315 316 318 319 317 323 334 342 342 340 341 341 340 337 340 342 341 344 343 345 348 350 349 350 350 347 348 347 341 339 338 337 336 334 333 334 335 335 334 332 327 320 317 317 316 316 317 315 311 310 310 310 310 311 311 312 312 312 315 319 321 323 323 322 325 331 335 336 337 338 337 337 337 338 337 337 336 334 333 331 324 317 313
309 311 314 318 319 319 319 316 316 314 311 311 312 314 315 317 318 317 318 319 326 332 335 340 343 343 341 338 342 345 344 346 348 348 348 350 348 349 350 348 349 346 341 339 339 338 337 335 333 334 335 335 334 332 326 319 317 317 315 315 316 314 310 310 310 310 311 311 311 312 312 312 315 320 322 323 325 326 331 335 337 339 338 337 337 336 336 337 337 335 333 332 330 326 321 317 313
309 313 317 320 320 320 319 316 316 313 311 313 312 314 315 316 317 316 318 318 324 324 325 339 345 342 343 345 345 347 347 347 348 348 348 349 348 349 349 348 349 346 341 339 339 338 337 335 334 334 334 335 335 333 326 319 316 317 315 314 315 314 311 310 310 310 310 311 311 312 312 312 315 319 322 322 325 329 333 335 336 338 336 335 335 335 335 334 333 332 331 330 330 328 324 318 313
311 316 319 320 319 319 318 316 316 315 314 314 313 316 315 316 316 317 318 319 331 327 318 333 344 342 345 347 346 347 347 347 347 347 348 349 348 348 348 347 349 346 341 340 339 338 338 336 335 334 334 335 335 334 328 320 316 316 315 314 314 314 313 310 310 310 310 311 311 311 313 312 313 317 320 321 323 326 329 332 334 335 334 333 333 333 332 330 330 329 328 328 329 326 321 317 314
313 319 321 319 318 317 318 317 317 317 316 315 316 317 317 318 317 319 319 318 327 330 327 337 344 343 345 347 347 347 347 347 347 346 347 349 349 349 348 347 348 347 342 341 340 338 338 337 336 335 335 335 335 335 330 322 316 316 315 313 314 314 313 312 310 310 311 311 311 311 312 312 313 314 318 320 321 322 326 328 330 332 331 331 331 330 328 327 326 326 325 325 325 321 318 317 314
314 318 320 318 317 317 318 318 317 318 316 315 316 318 318 319 318 319 319 318 318 323 337 346 344 342 344 349 348 347 347 347 347 347 347 349 349 349 348 346 348 347 343 341 340 339 338 338 338 337 336 335 335 335 333 325 318 316 315 313 313 313 314 313 311 311 311 311 311 311 312 312 312 313 316 319 320 322 324 327 328 329 330 328 327 326 325 324 324 324 324 322 320 318 318 316 312
316 318 318 317 316 316 316 316 316 316 316 316 316 318 319 318 318 318 318 318 316 320 340 347 342 339 345 349 349 347 347 347 347 347 348 349 349 350 348 347 348 348 345 341 342 341 338 339 338 338 337 335 336 336 334 328 321 317 316 314 312 313 314 314 313 311 311 311 311 311 311 312 312 312 315 317 319 320 322 325 326 327 328 327 326 325 325 324 323 324 322 320 320 320 320 316 313
317 317 316 316 315 314 314 314 314 315 315 316 316 317 318 317 316 317 317 317 320 330 344 345 340 342 347 350 349 347 347 347 347 347 348 349 349 350 349 347 348 349 346 343 344 343 339 339 339 339 338 336 335 336 336 332 325 319 317 315 313 313 313 314 314 313 313 312 312 312 311 311 312 311 313 316 318 319 320 323 324 325 326 327 326 325 325 324 323 323 321 321 322 322 321 318 315
318 316 315 315 314 312 312 313 314 315 315 315 316 317 316 315 315 316 316 319 332 342 346 344 341 346 349 350 349 346 347 347 347 348 349 350 350 350 349 348 348 349 348 344 343 342 340 340 339 339 338 336 336 336 336 333 327 320 318 317 315 314 313 314 314 314 314 313 312 313 312 311 311 311 311 315 317 317 317 320 322 323 325 326 325 325 325 325 322 322 323 323 324 324 321 320 317
318 316 315 315 314 313 313 313 315 316 317 317 317 317 314 313 315 316 314 322 341 346 345 343 339 345 348 350 349 346 347 347 347 347 348 349 349 350 349 348 348 349 348 345 344 342 341 341 339 339 338 336 335 337 337 334 328 321 318 317 316 315 314 314 314 314 314 314 314 314 313 311 311 311 311 313 315 316 316 317 319 321 324 325 325 325 325 325 322 323 325 324 325 325 322 321 320
317 315 315 314 313 314 314 314 315 317 318 317 316 315 313 314 314 316 321 332 345 344 343 341 338 344 348 349 348 347 347 347 347 346 347 348 349 348 347 348 348 348 348 346 345 343 342 342 340 340 339 337 335 337 338 335 329 322 318 317 316 315 316 316 316 316 315 314 314 315 314 311 311 311 311 312 314 316 316 315 317 319 321 324 324 324 325 324 322 323 326 326 326 326 323 323 322
317 316 315 314 313 314 315 314 315 316 317 316 315 313 317 323 316 319 333 340 343 343 343 340 340 346 346 347 347 346 347 346 345 345 346 347 347 347 347 347 347 347 347 346 345 344 343 342 341 341 340 338 336 337 338 336 332 326 320 317 316 317 319 322 323 323 321 318 315 314 314 312 311 311 311 312 312 315 316 314 315 316 318 322 323 322 323 324 322 322 325 326 326 326 324 324 324
317 316 316 315 314 314 314 314 315 315 316 315 314 311 319 332 327 329 338 339 342 343 342 341 342 344 343 345 346 346 347 346 345 344 346 346 346 346 347 347 347 347 347 346 344 344 343 342 341 341 340 340 337 336 338 337 334 331 327 322 320 321 325 328 329 329 328 325 320 316 315 314 313 312 311 311 314 314 314 314 315 316 315 318 322 321 321 322 322 322 323 325 326 326 325 325 324
317 316 315 316 314 314 314 315 314 315 316 314 313 312 317 329 335 337 335 336 344 344 342 343 343 342 341 343 344 345 346 346 344 344 345 346 346 346 346 346 346 347 346 345 343 343 342 341 340 340 340 340 337 336 338 338 336 335 333 330 328 328 331 331 332 332 332 330 327 323 318 315 314 314 312 311 314 315 314 313 314 316 315 314 319 321 320 321 322 321 322 323 325 326 325 325 324
317 316 316 315 313 313 313 315 314 314 315 314 313 314 312 320 335 342 338 340 344 344 344 343 342 342 341 341 341 344 346 346 344 344 344 345 345 345 346 346 346 346 346 345 344 342 341 340 340 338 337 337 336 336 337 338 338 336 335 335 334 333 333 333 333 333 333 331 330 329 325 322 318 316 314 312 314 316 316 314 314 315 315 313 316 320 320 321 321 322 323 323 324 325 325 325 323
318 317 316 314 314 314 314 315 314 313 314 315 313 313 312 315 335 344 341 343 344 344 344 342 342 342 341 342 341 343 345 346 344 344 344 344 344 344 345 345 346 346 345 345 344 342 341 339 337 335 335 335 335 336 337 338 338 338 337 336 336 336 335 335 336 335 334 334 333 333 332 330 326 321 317 314 313 316 317 314 313 314 315 314 315 320 322 321 321 322 324 325 324 324 324 324 323
317 315 315 315 315 314 314 314 313 313 314 315 313 313 312 313 332 342 339 343 344 344 344 342 342 341 342 343 341 343 345 345 344 344 344 343 343 343 344 345 345 345 345 345 344 343 342 340 336 334 334 335 335 336 336 338 338 339 338 338 338 338 338 337 338 337 336 337 335 335 336 333 332 331 325 319 315 315 317 316 313 313 314 315 315 321 323 321 321 321 324 327 326 325 325 325 323
316 314 315 315 315 313 313 313 313 314 313 314 314 313 312 312 320 329 336 342 342 342 343 343 341 340 342 343 342 343 345 346 344 344 344 343 343 342 342 343 344 344 345 344 343 343 343 341 338 335 334 334 335 335 336 337 338 339 339 339 339 339 340 339 338 338 337 337 335 336 337 335 335 335 332 329 322 317 317 316 314 313 313 315 316 321 324 321 321 322 325 328 328 327 327 326 325
316 315 316 315 313 314 315 314 315 315 313 313 313 312 314 313 313 322 336 339 337 339 338 338 337 338 341 342 342 343 345 346 344 344 344 343 343 342 341 342 342 343 344 343 342 343 343 341 338 335 333 334 335 335 335 335 336 337 339 339 339 340 340 340 339 338 337 336 336 336 336 335 335 334 334 334 332 327 322 318 316 314 313 313 315 319 323 322 321 323 325 329 330 328 328 327 326
315 315 317 315 312 313 316 315 314 314 313 312 312 313 313 314 315 326 337 329 326 334 332 332 335 336 338 341 342 343 345 345 344 344 344 343 343 343 341 341 341 341 342 342 341 341 341 340 338 334 332 333 333 334 334 333 334 335 337 338 339 339 339 339 339 338 337 337 336 336 336 335 334 334 334 335 335 333 329 324 318 317 317 313 313 315 319 321 321 323 326 330 331 330 329 327 326
314 314 314 316 314 314 315 314 315 313 313 312 313 314 312 313 313 322 333 326 320 328 329 330 334 337 337 338 340 343 344 345 345 344 344 344 343 343 341 341 341 339 339 340 339 340 339 338 337 334 332 332 333 334 334 335 335 335 336 338 339 339 339 338 338 337 337 336 336 336 335 335 334 334 335 335 334 332 331 330 322 319 321 317 316 314 314 318 321 324 327 329 331 331 330 328 327
314 314 313 315 314 314 315 314 316 315 314 313 313 313 311 314 312 316 328 325 317 320 324 330 332 335 337 336 338 341 343 344 344 344 344 344 343 342 342 341 341 339 339 340 339 338 339 338 336 335 333 332 333 335 336 336 336 337 338 339 340 339 338 337 337 337 336 336 336 336 335 335 335 334 335 335 334 333 331 331 326 323 325 321 321 318 314 316 321 325 328 330 331 331 330 328 327
314 315 314 316 315 315 316 315 316 315 314 313 312 312 312 313 312 313 320 319 316 315 319 329 331 334 336 335 337 339 342 343 342 343 343 343 343 342 342 341 341 340 339 339 338 337 337 337 335 334 332 332 334 335 336 337 337 338 339 339 339 338 337 335 335 336 335 335 335 335 334 335 335 335 335 334 333 333 330 330 328 327 327 325 325 324 319 317 320 326 328 331 331 331 330 328 328
315 316 315 315 316 316 316 315 316 314 312 312 312 313 312 311 312 313 315 315 317 316 318 328 331 333 336 336 336 338 341 342 342 342 342 342 342 342 342 342 341 340 340 339 338 337 336 335 334 332 332 333 334 336 337 337 336 338 338 337 336 334 334 333 333 334 334 335 334 334 334 334 335 336 335 332 330 330 329 328 328 327 328 327 326 327 325 319 320 325 329 331 331 331 330 328 327
315 316 315 316 317 316 315 314 313 313 311 312 312 313 312 311 312 314 315 316 318 319 319 327 332 333 336 336 337 338 341 341 341 341 342 342 341 342 342 342 341 340 340 340 338 337 336 335 333 330 331 334 335 337 336 335 335 335 335 335 333 332 331 331 332 334 334 334 333 333 334 334 335 336 334 331 330 330 329 327 328 327 327 328 327 328 329 324 320 325 330 332 332 331 330 328 327
314 315 314 315 314 313 313 312 312 312 312 312 311 313 312 311 312 314 317 318 320 321 320 327 333 334 336 337 337 339 340 340 340 341 341 341 341 342 343 342 341 340 340 339 339 337 336 335 333 330 331 333 336 337 333 332 334 334 334 334 333 331 331 331 332 334 334 333 332 333 334 334 335 335 333 331 331 332 330 328 328 328 326 328 328 328 331 329 323 325 331 332 332 331 330 329 328
313 312 313 313 312 312 312 311 311 311 312 312 311 313 313 313 313 312 317 318 321 323 322 328 334 334 336 338 338 339 339 339 339 340 341 341 341 342 343 342 340 340 340 339 339 338 337 335 332 331 331 333 335 335 332 330 332 333 333 334 333 331 331 332 332 332 332 333 332 331 333 334 335 334 331 332 332 332 332 330 330 329 327 328 328 328 330 331 327 326 330 332 332 331 330 330 328
311 311 312 313 312 313 312 310 309 310 311 312 312 313 313 315 313 313 317 318 320 321 321 330 334 334 336 337 339 339 339 338 339 339 340 340 341 342 343 341 340 340 340 339 339 338 338 336 332 331 333 335 334 333 334 331 332 333 333 332 331 332 332 331 330 330 331 332 331 331 332 333 335 334 331 331 332 332 332 331 331 330 328 328 328 328 329 330 330 328 330 332 331 331 330 330 328
311 310 311 312 313 313 312 310 309 311 311 311 312 313 313 314 313 312 319 326 325 320 326 336 337 335 336 336 338 340 339 338 338 337 339 340 341 343 343 342 341 341 340 340 339 339 339 337 334 331 333 335 332 330 333 331 331 333 335 334 331 331 332 328 327 329 330 330 331 332 332 334 334 334 332 330 331 331 331 331 331 331 330 329 328 327 328 330 330 330 330 331 331 331 331 330 328
310 311 312 310 311 313 312 310 310 311 311 310 312 313 313 314 314 309 319 334 337 330 334 338 338 337 338 339 339 341 340 338 339 339 340 340 341 344 343 342 343 342 341 340 340 339 339 338 336 334 334 334 331 329 331 330 329 331 334 334 330 330 330 327 327 329 329 330 332 330 331 334 334 333 332 332 332 332 332 331 331 332 331 330 328 327 327 329 330 330 330 331 331 331 331 331 329
310 312 313 311 311 312 311 311 310 310 311 311 311 313 313 313 314 308 317 337 341 338 338 338 339 339 339 340 340 341 340 339 340 340 340 340 342 344 343 344 342 341 341 341 340 339 338 337 336 335 334 334 331 329 330 330 329 330 332 332 329 328 329 328 328 329 329 329 331 330 331 333 331 331 332 332 332 332 332 332 331 332 331 330 329 327 326 327 329 330 331 331 330 331 331 330 330
311 312 313 311 311 311 311 312 311 310 312 313 312 313 314 312 313 310 317 335 340 340 340 340 341 340 339 340 340 341 340 339 340 341 341 339 341 344 344 344 342 339 339 340 339 337 336 336 336 335 334 334 332 331 331 331 331 331 332 332 330 328 329 329 329 330 329 328 330 330 331 331 330 331 332 331 331 332 332 332 332 332 331 330 329 328 327 327 328 330 331 331 331 331 330 330 330
312 312 313 311 310 311 312 312 311 312 313 314 313 314 315 313 313 311 314 331 341 341 339 341 341 341 341 341 341 341 339 340 341 340 340 339 340 345 345 344 342 339 338 339 338 338 337 337 337 337 336 336 335 334 334 334 334 334 333 332 331 330 330 330 330 330 328 328 329 330 331 331 330 331 331 330 330 331 332 332 332 332 331 330 329 328 328 328 327 329 331 330 330 331 330 330 330
312 312 313 312 311 311 312 312 311 311 313 314 314 315 315 313 312 313 316 326 337 341 339 341 341 341 341 341 342 340 339 341 340 339 339 338 340 344 345 344 342 340 339 340 339 339 339 339 339 338 338 337 337 337 337 336 336 335 334 333 331 330 330 330 331 330 328 329 330 331 330 330 331 331 331 330 330 331 332 332 332 332 331 330 329 327 328 329 327 328 331 330 330 330 330 331 331
312 312 312 311 311 312 311 312 310 310 313 315 314 315 313 312 312 316 322 325 331 336 337 339 341 341 340 341 341 340 340 340 339 339 338 338 340 343 344 344 343 342 341 341 340 340 339 339 338 338 338 338 337 336 336 337 336 335 335 334 331 331 331 331 332 331 329 330 331 331 331 330 331 332 332 330 330 332 332 332 332 332 331 330 329 328 329 330 329 329 330 330 330 329 330 331 331
312 311 311 310 310 312 311 311 310 310 314 315 314 313 311 312 314 319 322 323 327 332 334 337 339 340 339 340 340 340 340 340 338 338 337 338 340 342 343 343 343 343 342 342 341 341 339 338 337 337 337 336 335 334 335 336 335 335 335 334 332 331 332 332 332 332 331 331 332 331 330 330 331 332 331 330 331 332 332 332 331 332 331 330 329 328 328 330 331 330 330 329 329 329 330 330 330
312 311 311 311 310 311 311 312 311 311 314 315 314 314 313 313 315 320 323 323 327 329 330 334 336 338 339 339 339 339 339 339 338 337 337 338 340 342 343 343 343 343 342 342 341 341 339 337 337 336 334 333 332 332 333 335 335 335 335 335 333 332 332 332 333 332 330 331 332 332 329 328 330 331 331 330 331 330 330 331 331 332 331 330 330 329 328 330 332 332 331 330 330 330 331 330 330
312 311 311 312 310 310 312 313 312 312 313 314 314 316 318 317 317 321 326 327 328 329 328 329 331 334 337 338 338 338 338 338 337 337 337 339 341 342 343 343 342 341 341 341 341 340 339 337 336 335 333 332 332 332 332 333 334 334 334 335 334 333 333 333 333 331 328 328 330 331 329 328 329 330 331 330 330 330 328 329 331 332 331 330 330 329 329 331 331 332 331 330 331 330 330 330 330
312 313 312 311 311 311 312 312 313 313 313 314 314 316 319 321 322 323 326 328 329 330 329 329 328 330 334 336 337 337 338 338 337 338 338 339 342 343 343 342 340 339 340 340 340 339 338 337 336 334 332 332 332 332 333 333 334 334 334 335 335 335 334 333 332 329 326 326 326 327 328 327 327 329 331 330 331 331 329 329 330 331 331 331 329 328 329 330 330 330 329 329 330 330 329 329 330
312 313 313 312 312 312 312 313 314 315 314 313 312 314 318 320 324 325 325 328 330 330 331 330 329 329 331 333 334 336 336 338 338 338 338 338 340 343 344 342 339 338 339 339 339 338 337 337 336 334 332 332 331 331 332 333 333 334 334 335 334 334 334 333 330 328 327 327 327 327 328 328 328 329 330 330 330 331 330 330 330 330 331 331 329 328 329 329 328 327 327 327 328 328 328 328 329
312 313 313 312 312 313 313 313 313 313 314 313 312 314 317 320 325 325 323 327 329 330 330 330 329 329 329 329 331 333 334 335 336 336 336 336 338 341 343 341 339 338 338 338 339 338 337 337 335 334 333 333 332 331 330 331 331 332 334 334 334 334 334 333 332 331 330 329 329 330 330 329 329 331 331 331 331 330 330 330 331 331 331 330 329 329 329 329 327 327 327 327 328 327 328 328 329
313 315 313 311 312 313 313 313 313 313 315 315 313 313 315 318 323 323 323 327 329 329 329 329 329 328 328 329 329 331 333 333 334 334 334 334 336 339 341 340 339 338 339 338 338 337 336 336 335 334 334 334 333 331 330 330 331 332 333 334 334 334 333 334 333 333 331 328 328 330 331 330 330 331 331 332 332 330 330 330 330 331 331 330 329 329 329 329 328 327 327 327 328 328 328 328 329
314 314 310 310 312 312 312 312 313 314 315 314 314 314 313 316 321 323 325 328 329 329 329 328 329 328 328 329 329 330 331 332 333 333 333 333 334 336 338 339 338 338 338 337 337 336 335 334 334 334 334 334 333 331 330 329 330 332 333 334 334 333 332 332 332 332 330 326 326 330 331 331 331 331 331 331 332 330 329 330 330 331 330 330 330 329 329 330 328 327 327 327 328 329 328 328 329
312 310 309 310 311 312 312 312 314 314 314 314 315 315 312 315 321 325 326 329 329 329 329 329 329 329 329 329 329 329 330 330 331 332 332 331 331 332 334 335 335 335 335 335 334 334 333 333 333 333 334 333 333 331 330 329 329 330 332 333 333 333 331 331 331 331 329 327 327 329 331 332 332 331 331 331 331 330 329 330 330 330 330 330 330 329 329 329 328 328 327 328 329 330 329 328 329
310 309 310 311 311 312 313 313 314 314 314 314 315 316 313 313 322 326 327 330 330 329 329 330 330 328 328 329 328 328 329 329 330 331 330 330 330 330 331 331 332 333 333 333 333 333 333 333 333 333 334 333 333 332 330 329 329 329 330 331 332 332 332 332 331 331 331 330 329 329 331 332 332 331 331 331 331 330 330 329 329 330 330 330 330 329 329 329 329 328 328 328 329 330 329 329 329
310 312 312 312 313 313 313 313 314 314 315 314 312 313 312 313 323 327 328 330 329 329 330 329 329 328 327 328 327 328 328 328 329 330 330 330 330 330 330 330 331 331 331 331 332 332 332 333 333 333 333 333 333 332 331 331 330 329 329 330 330 330 331 332 332 332 332 331 330 331 332 332 332 331 331 331 331 331 330 329 329 330 330 330 330 329 329 329 329 329 329 329 329 329 329 329 329
311 312 313 313 313 314 314 314 314 315 315 313 311 312 313 317 325 328 328 328 328 329 329 328 328 328 327 327 327 327 327 327 328 328 328 328 329 329 329 330 330 330 331 331 331 331 332 332 332 332 333 333 332 331 330 330 330 330 330 330 329 330 331 332 332 332 332 331 331 332 332 332 332 331 331 331 331 331 331 330 329 330 330 329 329 329 328 329 329 329 328 328 328 328 329 329 329
312 313 314 314 313 314 314 313 313 314 314 312 310 312 316 322 327 327 326 327 327 328 328 327 327 327 326 326 326 326 325 326 326 326 327 327 327 328 328 329 329 330 330 331 331 332 332 332 332 332 332 332 331 330 329 329 329 329 330 330 330 329 331 332 332 332 332 331 332 332 332 332 332 331 331 331 331 331 330 329 329 330 330 329 329 328 328 328 328 328 328 328 328 328 328 329 329
312 312 313 314 314 314 314 313 314 314 314 312 310 313 319 325 327 326 326 327 327 328 327 327 326 325 325 325 324 325 324 325 325 326 326 326 326 327 327 328 328 329 329 330 330 330 331 331 331 331 331 331 331 330 329 329 329 329 329 330 330 330 331 332 332 332 332 331 331 332 332 332 332 331 331 331 331 330 330 329 329 329 329 329 328 328 327 327 327 328 328 328 328 328 328 328 328
311 311 312 314 314 315 313 312 314 315 314 313 315 319 323 325 326 325 326 327 327 327 327 326 325 324 324 324 323 324 324 325 325 325 326 326 325 325 326 326 326 327 328 328 328 328 328 329 329 329 329 330 330 329 328 328 328 328 328 329 330 330 331 332 332 332 332 331 331 332 332 332 332 331 331 331 331 330 330 330 329 329 329 328 327 327 327 327 328 328 328 327 327 328 328 328 328
311 311 313 313 312 315 314 311 311 314 314 313 317 323 325 325 327 325 325 327 327 327 326 325 324 324 323 322 322 322 324 324 324 324 325 324 324 323 323 324 324 325 326 326 327 327 327 327 327 328 328 328 329 328 327 327 327 328 329 328 329 329 329 331 332 331 330 330 329 329 330 331 331 330 330 330 330 330 330 330 329 329 328 326 325 325 326 327 328 328 328 327 327 328 328 328 329
312 312 313 311 310 314 316 313 312 313 314 316 318 325 327 328 329 327 325 327 328 327 326 324 323 323 322 321 320 321 321 323 323 324 324 323 322 322 322 323 323 324 324 324 324 325 325 326 326 327 327 328 328 328 328 327 327 328 328 328 328 329 329 329 330 330 329 329 327 325 327 329 330 329 329 330 329 329 330 329 329 328 328 327 326 326 327 328 329 328 327 327 328 328 328 328 328
311 313 313 312 313 314 314 314 314 312 314 317 321 324 325 328 329 328 327 328 329 327 324 323 322 321 321 319 319 320 321 322 323 323 323 323 322 322 323 324 324 324 323 323 323 323 324 325 326 326 327 327 328 328 328 328 327 327 327 328 328 329 328 329 329 328 327 326 324 323 325 328 328 329 330 330 329 329 329 329 329 328 328 328 327 327 328 328 329 328 328 328 328 328 328 327 328
310 312 311 312 315 315 314 314 315 314 314 317 323 324 324 324 326 327 327 328 328 326 322 322 321 319 318 317 318 319 319 319 320 321 322 322 322 322 323 323 324 324 324 323 323 323 324 326 327 326 326 326 327 327 327 327 327 328 327 328 328 328 328 328 328 327 325 324 324 324 326 328 328 328 329 329 329 329 328 328 328 328 328 329 328 327 327 327 328 328 329 329 329 328 328 328 328
311 313 313 313 313 313 314 314 312 313 313 315 322 324 322 321 323 325 327 328 326 323 321 320 319 317 316 316 317 317 315 316 319 321 321 322 322 322 322 322 322 323 323 323 324 324 325 326 326 326 325 326 326 327 327 326 326 327 327 328 327 327 327 326 326 326 324 324 326 326 327 328 328 328 329 329 328 328 328 327 328 329 329 329 328 328 328 327 327 327 328 329 328 328 328 327 327
312 314 313 314 314 313 314 313 311 312 313 314 319 321 319 321 322 325 326 326 324 321 320 319 317 316 315 315 316 316 314 316 318 319 320 322 322 322 322 321 320 320 321 322 322 322 323 324 324 324 324 325 326 326 327 326 326 327 326 327 328 327 326 326 326 326 324 324 326 327 327 327 327 327 329 329 329 328 327 326 326 328 328 329 329 328 328 327 327 327 328 329 328 327 327 327 327
Wind_Speed
4 5 7 8 8 6 4 3 1 2 0 1 1 1 2 3 2 2 3 3 3 2 2 2 2 5 4 3 4 3 5 3 1 1 3 2 4 11 13 11 14 23 28 27 25 24 22 21 20 18 17 15 14 13 13 13 14 14 14 14 13 13 13 13 13 15 15 14 13 13 12 11 13 15 17 17 18 20 22 23 24 25 23 21 20 20 20 20 20 20 19 18 17 16 16 16 17
5 6 8 9 7 5 2 1 1 1 1 2 1 2 0 1 0 2 4 4 2 3 6 6 5 4 2 5 6 6 6 5 4 4 5 5 10 12 12 10 14 25 28 28 26 24 23 21 20 18 17 15 14 12 12 13 13 14 14 14 14 13 13 14 15 15 15 14 14 13 12 12 14 16 17 18 19 22 24 24 24 24 23 21 20 20 20 19 19 19 19 17 15 14 15 17 17
6 7 8 8 5 3 2 1 1 1 2 3 2 3 0 1 3 1 2 3 3 2 3 5 3 3 3 4 4 3 4 5 5 6 7 9 13 12 12 10 16 26 28 28 25 24 23 21 20 19 17 15 13 11 11 12 13 14 14 14 14 14 14 14 15 15 15 14 14 13 12 12 14 16 17 18 20 23 24 24 22 21 22 21 21 21 20 19 19 18 17 16 15 15 16 16 16
7 8 9 7 4 2 3 0 0 2 2 2 1 3 3 2 3 1 1 6 9 8 6 4 2 1 3 1 2 3 5 6 6 6 8 11 14 14 12 11 18 27 28 28 25 23 22 20 20 18 17 15 13 11 10 11 12 13 14 14 14 14 13 14 14 14 14 13 13 13 12 12 15 16 17 17 19 23 23 22 21 20 21 22 22 21 20 19 18 17 16 16 16 16 16 15 15
8 10 9 6 3 1 2 1 1 2 3 2 1 1 3 3 2 2 4 10 10 9 11 1 2 1 2 2 2 2 5 6 6 7 9 12 16 15 12 11 18 27 27 27 25 23 22 20 19 18 17 15 13 11 10 10 12 13 13 14 14 14 13 13 14 13 13 12 12 12 12 12 15 16 16 17 18 21 22 20 20 20 20 21 21 20 19 18 17 16 15 16 16 15 14 14 15
10 10 7 4 3 2 2 1 2 2 3 3 2 1 4 3 1 4 7 10 6 3 10 6 2 2 3 3 4 3 6 5 3 6 10 13 15 14 12 12 18 26 26 26 24 23 22 20 19 18 16 14 13 10 9 10 11 12 13 13 13 12 12 12 12 12 12 12 12 12 12 12 14 15 15 16 17 18 19 19 19 19 19 19 19 18 17 15 15 14 14 15 15 15 14 14 16
11 9 5 4 3 1 2 1 2 2 2 4 4 3 1 2 2 6 8 7 2 3 5 6 4 3 2 3 4 4 6 5 4 5 9 13 15 14 12 12 17 24 25 25 24 23 22 20 19 17 15 14 13 10 9 9 10 11 12 12 12 11 11 11 11 11 11 11 11 11 11 11 12 14 14 14 15 16 16 17 17 18 18 18 17 17 15 14 14 13 14 15 15 14 14 15 17
11 7 3 3 1 1 1 1 2 2 2 3 5 7 7 4 4 7 7 2 2 1 4 6 7 3 2 4 2 4 4 5 4 4 8 11 13 14 13 13 18 24 25 25 23 22 22 20 18 16 15 14 12 11 9 9 10 10 11 11 10 10 9 9 10 11 11 11 11 10 11 11 11 13 13 14 15 15 16 17 17 17 18 18 17 16 15 14 13 14 15 16 15 15 15 17 19
9 5 3 2 1 0 1 0 2 3 3 4 6 11 12 9 6 8 6 4 5 3 5 7 6 2 4 3 3 5 3 3 3 5 10 11 12 15 15 15 18 23 25 24 20 20 21 19 18 16 14 14 13 11 10 9 9 9 10 10 10 10 9 9 10 10 10 10 11 10 11 12 12 13 13 14 15 15 16 17 17 17 17 17 16 15 14 13 13 14 16 16 16 15 16 18 21
7 3 3 1 2 1 1 1 1 2 4 5 8 14 14 10 8 8 7 4 4 3 7 8 3 1 6 3 3 5 3 3 3 7 12 12 13 17 16 15 18 22 23 23 20 20 21 19 17 16 14 13 12 11 10 9 9 9 9 10 10 10 10 9 10 10 9 10 11 11 11 12 13 13 14 14 15 15 15 16 16 17 17 17 15 14 13 12 13 16 17 16 16 16 17 20 21
4 2 3 1 2 2 2 2 3 3 5 5 8 10 9 8 6 6 7 3 2 4 8 7 2 5 6 2 3 5 4 4 6 10 13 13 14 17 16 15 18 20 22 23 22 21 21 19 17 15 14 13 12 11 10 10 9 9 9 10 10 10 9 10 9 9 9 10 11 11 10 12 13 13 14 14 15 15 14 15 15 16 17 16 15 13 12 11 12 16 17 16 16 17 18 20 21
3 1 2 1 1 1 1 2 3 5 6 4 4 5 10 6 4 4 7 5 5 6 7 6 3 7 4 2 3 5 5 5 7 11 12 12 13 15 15 15 16 18 20 23 22 21 21 19 18 16 14 13 12 12 11 10 9 9 9 10 10 9 9 8 8 7 8 10 10 11 11 11 12 12 13 14 14 14 13 13 14 15 16 16 14 12 11 10 12 16 17 16 16 17 18 20 20
2 1 2 1 1 1 1 1 3 4 4 2 2 10 14 4 3 2 8 7 7 6 6 5 4 7 3 2 3 4 5 6 9 10 10 11 12 12 13 14 15 16 18 20 20 20 19 18 17 16 15 14 13 12 11 11 10 9 9 10 10 9 8 7 6 6 7 7 8 10 11 11 12 12 13 14 14 15 13 12 13 13 14 15 14 12 11 9 10 15 17 16 16 17 18 19 20
4 3 2 1 0 1 1 1 2 2 1 1 3 14 13 4 4 2 9 8 7 4 5 8 8 6 2 3 4 5 6 8 10 10 11 12 12 12 12 13 13 15 17 18 19 18 18 17 16 15 15 15 14 14 12 11 10 9 9 10 10 8 7 6 5 5 5 6 6 8 10 11 12 12 12 14 15 15 14 12 13 13 13 15 14 12 11 9 9 13 15 15 16 16 16 18 19
6 3 1 1 1 1 2 2 1 0 1 1 5 17 11 5 7 4 5 5 6 5 7 9 9 4 2 4 3 7 8 9 12 10 12 12 12 12 11 12 12 13 15 16 18 17 18 17 16 16 15 15 15 15 14 12 11 10 9 9 9 8 7 6 5 5 5 6 6 7 9 11 12 12 12 13 15 16 14 12 13 14 14 14 15 13 12 10 9 10 13 13 14 15 15 16 17
7 3 1 1 2 1 2 2 0 0 1 0 7 18 9 5 7 2 2 4 9 9 9 8 9 3 3 4 3 8 9 11 13 11 12 13 13 13 12 13 12 12 13 15 16 17 17 17 17 17 17 16 16 16 14 13 12 10 10 9 9 9 7 7 7 6 6 6 7 7 8 9 10 11 12 12 14 16 15 12 13 16 15 15 16 15 13 11 10 9 11 12 12 12 14 14 15
7 3 1 1 2 3 3 4 2 1 2 1 7 17 8 4 6 5 4 6 12 11 7 7 9 3 3 5 2 7 10 12 14 13 14 14 14 14 13 14 14 14 14 14 15 16 17 17 18 18 17 16 16 16 15 14 13 13 12 11 10 10 9 8 8 8 8 8 8 9 8 9 9 9 11 12 13 15 15 14 14 16 16 16 17 16 15 13 11 10 9 11 11 11 12 13 13
6 2 2 2 3 3 4 5 3 1 3 3 7 12 7 5 5 6 5 6 9 9 4 5 8 3 2 4 3 6 11 14 15 14 15 15 15 15 15 15 16 15 15 15 14 15 17 17 17 17 17 16 16 16 16 16 16 15 14 13 12 11 11 10 11 10 9 10 10 9 9 9 9 9 10 11 12 14 15 14 13 16 18 17 18 18 17 15 13 11 9 9 10 10 10 11 12
4 1 3 4 4 2 3 3 1 1 4 6 7 8 6 7 2 3 1 2 4 6 4 4 5 4 3 4 5 8 12 15 15 15 15 15 15 16 17 17 17 17 17 17 15 15 15 16 17 17 17 17 17 17 18 18 17 17 15 15 14 13 13 13 12 12 12 12 11 10 10 10 9 9 9 9 10 11 13 13 14 17 18 19 20 20 19 17 15 13 11 9 9 9 9 9 10
4 2 4 5 3 3 4 5 6 7 8 7 6 6 7 8 3 3 2 2 3 4 5 4 6 7 7 8 8 10 14 15 15 15 14 15 15 15 17 19 20 19 19 19 17 16 15 15 16 17 17 17 18 18 18 18 18 18 17 17 16 15 14 14 14 14 14 13 12 11 12 11 10 8 7 7 9 10 11 12 14 17 19 20 21 22 21 19 17 16 13 11 9 9 9 9 9
4 4 4 2 2 4 6 7 10 10 9 5 5 7 7 9 5 4 6 5 2 5 6 4 5 9 12 12 11 12 15 16 15 14 13 14 14 15 16 18 20 20 20 19 18 17 16 15 14 16 17 18 18 18 18 17 18 19 19 19 18 18 17 16 15 15 15 14 14 13 13 12 10 9 9 9 9 9 10 10 13 17 19 20 21 23 23 22 20 18 15 13 11 10 9 8 9
5 4 5 4 3 3 6 6 8 8 7 5 6 7 6 7 7 4 8 4 2 4 5 3 2 8 12 12 12 13 15 16 16 15 14 15 14 15 15 15 17 19 19 19 19 18 17 15 14 15 17 19 19 18 18 18 19 19 20 20 21 21 19 18 17 17 16 15 15 14 14 12 11 11 12 12 10 9 9 10 12 16 19 20 21 22 24 24 22 20 18 15 12 11 10 9 9
5 2 3 9 9 6 7 8 8 10 9 6 5 7 6 5 6 4 9 3 2 4 4 4 3 7 10 9 11 14 16 17 17 15 14 14 14 15 15 14 15 16 16 17 20 19 17 16 16 16 16 18 19 20 20 20 21 21 22 22 22 22 20 19 20 19 17 16 16 15 14 13 12 12 12 12 11 11 10 10 13 14 18 19 19 21 23 25 24 22 20 17 14 12 11 10 10
6 3 3 9 11 10 11 11 13 15 13 10 8 10 6 2 3 2 8 6 2 4 4 6 6 8 10 9 12 15 16 15 14 13 12 13 13 13 14 14 13 14 14 14 17 19 19 18 17 17 17 19 21 22 22 23 23 21 21 21 20 19 19 20 20 18 17 17 16 15 15 14 13 12 11 11 10 11 11 11 12 13 16 19 18 19 21 24 25 24 21 18 15 13 12 11 10
7 6 4 6 10 11 12 13 16 18 16 13 9 8 3 1 3 3 6 5 4 4 4 7 8 10 11 11 13 15 15 13 12 12 12 13 12 12 13 14 13 13 14 13 13 15 18 20 19 18 18 20 21 22 22 22 22 19 19 19 18 18 18 19 19 17 17 17 17 16 16 15 13 13 12 11 10 10 10 10 11 11 15 18 19 18 20 23 25 24 22 19 17 15 13 11 10
8 9 5 7 8 9 11 12 15 16 12 8 5 5 2 2 4 4 5 6 7 7 6 8 9 11 13 14 15 15 14 13 12 13 13 13 13 12 12 14 14 13 14 14 12 12 15 19 21 20 20 21 21 20 20 20 20 18 18 17 17 17 18 18 18 17 16 16 16 16 16 14 14 13 12 11 10 10 11 11 11 12 13 17 19 18 18 21 23 24 23 20 18 16 14 12 10
7 11 9 10 11 10 10 11 15 14 10 8 8 4 3 2 3 2 5 10 9 8 9 10 10 12 15 16 16 15 13 12 12 12 12 13 13 14 12 13 14 13 14 15 14 12 13 16 19 22 22 20 19 18 19 19 19 19 18 16 16 16 17 19 18 17 16 15 16 16 15 15 14 14 12 10 10 10 11 11 12 12 13 16 19 19 18 19 22 23 23 21 19 16 15 13 11
6 8 7 9 10 11 11 11 14 10 7 9 9 2 2 3 4 2 5 10 10 9 9 11 12 14 16 17 16 14 12 12 12 11 13 14 13 14 13 11 13 13 14 14 13 12 13 14 17 21 21 20 18 17 20 19 19 19 16 16 16 16 18 19 18 16 15 15 16 15 15 16 16 15 13 11 11 10 10 10 11 13 14 16 19 20 19 18 21 23 23 21 19 17 15 14 12
6 6 4 3 3 6 9 9 7 4 3 4 7 3 1 2 3 3 6 10 10 9 9 11 13 13 15 17 16 13 12 12 12 12 13 13 12 12 11 10 11 12 12 12 12 12 12 13 16 18 19 18 17 17 20 20 19 18 16 17 17 16 18 17 14 14 15 15 15 15 15 16 17 15 13 12 12 10 10 10 11 12 14 16 18 20 20 19 21 23 23 22 20 18 16 15 13
5 4 2 1 2 3 4 3 2 4 3 3 8 4 3 3 4 5 9 13 13 12 13 14 14 14 15 18 16 12 12 13 12 13 12 11 11 10 9 10 10 11 11 11 12 12 12 13 17 19 17 16 18 18 19 19 17 16 17 18 16 14 15 14 13 13 15 15 14 14 15 17 17 16 14 13 12 11 11 10 11 12 14 15 16 19 21 21 21 22 23 22 20 18 17 16 14
4 5 2 1 2 2 0 1 3 4 1 6 10 4 2 3 5 6 9 13 16 17 15 13 15 16 16 18 16 12 11 13 12 12 11 10 10 8 8 10 9 10 11 11 11 11 12 13 15 18 15 13 18 19 18 20 17 15 19 17 12 11 12 12 13 13 14 15 15 15 16 17 17 16 15 14 14 13 12 12 12 13 14 14 14 17 21 22 22 22 23 23 21 19 18 17 16
1 4 4 2 3 2 1 1 3 2 1 4 7 3 1 2 5 7 8 12 13 14 12 11 14 16 15 15 14 10 9 12 12 11 9 9 9 7 8 9 9 9 10 10 11 12 13 13 12 14 14 13 18 19 17 19 17 17 19 15 10 11 11 12 13 14 14 15 16 16 17 18 18 17 16 14 15 15 13 12 13 14 15 14 14 15 19 22 23 23 23 23 22 21 19 17 16
0 3 4 4 5 3 1 2 1 1 2 2 2 1 1 1 3 3 8 11 8 9 9 11 13 14 13 12 11 10 9 11 11 9 9 8 8 8 9 9 8 9 10 11 13 13 12 12 11 12 13 14 16 17 16 17 17 16 16 13 13 13 13 13 14 15 16 15 16 17 18 18 16 16 14 13 14 14 13 13 14 14 15 14 14 15 18 22 23 24 24 23 23 21 20 18 16
2 1 2 2 4 3 2 1 2 2 2 3 0 2 2 1 3 1 8 11 9 9 8 9 10 11 12 11 11 10 11 11 9 7 8 9 8 9 10 10 9 10 11 14 15 13 12 11 11 11 11 12 13 15 15 16 16 15 15 16 16 15 14 15 15 17 17 15 16 17 17 15 14 13 12 12 14 15 15 15 15 15 15 14 15 16 17 20 23 24 24 23 22 20 19 18 15
5 4 4 2 2 3 2 2 1 3 1 2 3 3 2 3 5 4 6 10 10 9 5 4 8 9 11 11 10 11 13 10 5 6 8 9 8 10 11 11 11 11 13 15 15 13 12 11 10 9 9 10 12 12 13 15 15 15 16 18 16 15 15 15 15 16 18 17 17 17 15 13 13 13 13 14 15 16 17 17 15 16 16 15 17 18 18 20 22 24 24 23 22 20 18 17 15
7 5 5 5 5 3 1 2 0 2 1 2 4 3 1 2 4 4 3 5 9 7 2 1 6 8 9 11 11 12 12 7 4 7 10 9 8 10 12 11 12 13 14 15 14 13 13 12 10 9 9 9 11 12 12 14 15 15 17 19 17 16 16 16 15 15 17 18 17 15 12 12 15 15 15 16 16 17 18 17 17 17 17 16 18 19 19 20 22 24 24 22 21 20 17 15 14
6 5 4 4 4 3 2 1 1 1 1 2 2 1 2 3 4 6 6 2 5 5 2 2 5 7 9 10 11 12 9 6 7 10 10 9 8 11 13 13 13 13 15 15 14 14 13 13 11 11 11 10 10 11 11 13 15 15 16 18 18 16 15 14 14 15 16 17 15 12 10 12 15 15 16 17 16 17 18 18 18 18 17 17 18 19 18 19 22 23 24 22 20 20 18 15 14
5 5 4 2 3 3 1 1 2 1 0 1 1 2 5 5 5 7 7 1 1 2 1 2 5 8 9 10 11 10 7 7 11 12 11 10 8 10 13 14 14 14 15 15 15 15 14 14 13 12 12 11 10 10 10 11 13 14 14 14 16 14 13 14 15 14 14 15 13 9 10 13 15 15 17 17 17 17 17 18 19 18 18 18 19 19 19 20 21 21 22 22 20 19 18 16 14
4 3 3 3 3 1 1 1 1 1 0 1 1 5 6 5 4 6 8 5 4 4 5 4 1 5 8 10 10 9 8 9 13 13 13 11 9 10 11 13 15 15 16 16 16 16 16 15 14 13 12 11 10 9 9 11 11 12 11 11 13 14 13 13 13 12 12 13 11 9 11 13 13 15 16 17 17 16 16 18 19 19 19 19 19 19 20 21 20 18 18 19 19 17 16 15 14
3 3 4 3 2 1 3 3 1 0 1 1 3 6 5 4 2 4 8 6 5 5 9 10 7 1 4 8 8 9 9 11 13 14 14 13 11 11 11 13 15 17 17 17 16 16 16 16 15 13 11 10 11 10 8 9 9 10 10 10 11 12 13 13 13 12 12 13 13 12 13 14 14 14 15 15 16 16 16 18 19 19 20 19 19 19 19 20 18 16 16 17 17 17 16 15 14
1 3 5 4 3 2 2 2 1 1 2 2 4 5 4 4 3 3 6 5 5 6 10 12 12 8 2 3 6 8 9 11 13 14 15 14 12 12 12 12 15 18 18 18 17 16 16 17 16 14 12 11 12 12 10 10 10 10 11 10 9 9 11 14 13 10 11 13 14 14 14 14 15 14 14 14 15 15 17 17 18 20 21 19 18 17 17 17 16 16 16 16 16 16 15 16 15
2 4 5 5 7 4 1 1 0 2 2 1 2 3 3 3 3 2 4 4 4 7 11 13 14 12 9 4 1 4 6 8 10 12 13 13 12 12 12 13 16 18 19 19 18 16 16 17 17 16 14 13 12 12 11 11 11 12 12 11 9 8 11 15 14 9 9 11 12 13 15 15 15 14 14 14 15 17 17 17 19 21 21 20 18 17 16 16 16 15 14 14 14 14 14 14 15
3 4 5 5 6 5 3 3 1 2 2 1 1 2 3 1 2 3 5 4 4 8 11 13 14 14 12 8 5 3 1 2 4 7 8 9 11 11 12 14 16 18 18 19 18 18 17 17 17 16 15 14 13 11 10 11 10 11 12 12 11 9 10 14 14 12 12 13 13 14 14 16 16 15 15 15 16 17 18 18 20 21 20 19 18 17 16 16 15 14 13 13 13 13 13 13 13
3 3 7 8 7 7 6 4 3 1 0 1 0 1 2 3 0 4 6 4 4 9 11 12 13 13 11 9 7 5 4 2 1 3 4 6 8 10 13 15 16 18 19 19 19 19 18 17 16 15 15 14 13 12 11 10 10 10 11 12 12 12 11 13 14 14 14 13 14 14 15 15 16 15 16 16 17 18 18 18 20 20 19 19 18 17 16 16 15 14 14 14 14 14 13 13 13
2 3 7 8 6 7 6 5 3 0 1 3 2 1 2 3 0 3 3 2 5 10 10 11 12 10 10 9 8 7 6 5 4 3 2 2 5 8 12 14 15 17 18 19 19 18 17 16 15 14 14 13 12 12 12 11 11 11 11 12 13 15 14 15 15 15 15 14 14 15 15 15 15 16 17 17 18 20 20 19 20 19 19 19 18 17 16 15 15 14 15 15 14 13 13 14 14
2 6 6 4 4 3 3 4 3 2 3 5 3 2 3 3 0 2 1 2 4 6 7 9 10 10 10 10 10 9 8 7 6 5 4 2 3 5 8 11 13 15 16 17 17 17 17 17 16 15 13 12 11 11 12 12 12 11 12 13 15 16 16 17 18 18 18 17 16 16 17 16 15 16 17 17 18 21 21 20 20 20 19 19 17 16 15 15 15 15 15 14 13 13 13 14 15
8 9 6 5 4 2 2 1 2 3 5 5 1 1 2 3 2 1 0 1 2 3 5 6 8 9 10 11 12 12 12 10 9 7 6 4 3 4 6 7 9 12 13 14 15 15 15 16 17 16 16 15 13 12 12 12 13 13 13 14 16 18 19 19 19 20 20 19 18 17 17 17 17 17 17 18 19 21 22 21 20 20 19 19 18 17 16 15 15 15 14 14 14 13 13 14 14
8 5 5 6 3 2 3 2 2 5 5 2 1 1 3 3 2 2 2 2 4 3 4 5 8 10 11 12 13 13 13 12 12 11 10 7 5 4 4 5 7 9 11 12 13 13 14 15 16 17 17 17 16 14 13 13 14 15 15 16 18 19 19 18 17 17 18 18 17 17 18 18 18 18 18 19 19 22 23 22 20 20 20 19 19 18 16 15 14 13 14 14 14 14 14 14 14
4 4 7 7 5 4 4 3 4 4 3 1 2 1 2 1 2 4 3 3 5 5 5 6 8 10 12 14 14 13 13 12 12 12 10 9 7 6 4 5 6 7 9 10 11 12 13 14 16 17 18 18 17 15 13 12 12 13 15 17 20 18 17 17 16 15 16 15 15 16 18 19 19 19 20 20 19 21 23 22 21 21 21 20 19 18 16 15 14 14 14 14 14 14 14 13 13
6 5 7 7 5 5 5 4 3 3 2 1 2 1 2 1 3 5 4 3 4 5 7 8 9 11 13 15 16 16 15 14 13 12 10 9 8 7 6 6 6 7 9 10 12 13 14 15 17 18 18 19 18 17 14 11 10 11 12 15 17 16 15 17 17 17 17 16 15 15 16 17 18 19 20 19 19 21 22 21 21 21 21 20 19 18 16 15 15 14 14 14 14 14 13 13 12
6 3 3 4 3 4 4 4 4 4 3 2 1 1 2 2 2 3 4 3 4 6 8 9 11 12 12 14 15 16 16 16 16 15 13 11 10 9 7 7 6 7 8 9 11 12 13 14 16 17 18 18 18 18 16 12 10 11 12 13 14 14 15 17 19 18 17 16 16 15 14 15 16 18 19 18 19 21 20 20 20 20 20 20 19 18 17 16 16 15 14 14 14 14 14 13 13
3 2 2 3 3 2 2 2 2 3 4 3 1 1 1 1 1 1 3 3 4 6 8 11 13 13 13 14 15 15 15 16 16 16 16 14 12 11 9 8 7 6 7 7 9 10 12 13 15 16 17 17 17 16 14 13 12 12 14 14 15 16 16 17 17 16 16 16 16 15 13 13 14 15 16 18 20 20 19 19 19 19 20 20 19 18 17 16 16 16 14 14 15 15 15 13 14
3 3 4 2 1 4 4 2 2 1 4 3 1 0 1 1 2 4 4 3 4 6 8 12 13 13 14 14 13 13 14 15 16 18 18 14 13 13 12 10 8 8 8 8 8 9 11 13 15 16 16 16 15 13 13 14 14 14 16 17 17 19 18 17 16 14 15 15 13 13 14 14 13 13 15 17 20 20 19 19 19 19 20 19 19 19 18 16 16 16 14 14 15 16 15 15 14
4 4 6 3 2 2 2 3 2 2 3 2 1 1 3 3 3 6 7 6 6 6 7 12 13 12 12 11 12 12 12 14 15 16 17 13 12 13 13 11 9 9 9 8 8 9 10 12 14 15 15 14 12 11 12 14 15 17 19 20 20 20 19 18 15 11 11 11 10 11 12 13 13 13 14 16 19 20 20 19 19 19 19 19 20 19 18 17 16 15 15 15 16 16 16 16 15
2 3 6 4 2 3 2 2 3 4 4 2 1 0 3 5 3 7 11 9 8 8 8 10 10 9 9 9 11 11 11 13 15 15 15 12 10 11 11 10 9 9 9 10 10 11 11 12 14 14 15 14 12 11 11 13 15 17 20 21 22 21 19 17 15 10 8 9 10 10 9 10 11 11 14 17 19 21 20 20 20 20 19 19 20 19 18 17 16 15 16 16 16 16 16 15 15
2 4 5 1 1 3 3 2 2 4 4 3 2 0 4 5 2 7 12 11 10 10 8 8 9 9 9 9 10 9 10 13 15 15 14 11 9 9 9 8 9 9 10 12 13 12 11 12 12 12 12 12 11 12 11 12 13 15 18 19 19 18 16 16 17 14 9 9 10 9 9 10 10 12 15 18 20 21 21 21 21 21 20 20 19 18 18 17 16 16 16 16 16 16 16 14 15
4 5 5 2 1 1 2 2 1 2 4 4 4 1 4 2 1 6 11 10 10 11 10 8 9 10 9 8 8 8 10 13 13 13 13 12 11 9 7 7 7 7 8 9 11 11 10 11 11 10 9 9 9 10 10 11 11 11 14 14 13 11 11 14 17 16 11 10 10 10 11 12 13 14 17 19 21 22 22 21 20 19 19 19 19 18 18 17 16 16 16 16 16 16 15 14 15
3 5 6 5 3 4 5 4 1 1 2 3 4 3 2 2 1 6 10 10 10 13 13 11 10 10 9 8 9 10 11 13 13 12 12 11 9 7 6 6 7 7 8 9 10 11 10 10 10 10 9 9 9 9 10 10 9 7 9 9 7 7 8 11 12 10 11 11 10 10 13 15 15 16 17 19 21 23 23 21 19 19 19 18 18 17 17 17 18 18 17 17 16 15 15 15 15
Wind_Direction
221 208 187 174 157 150 140 140 180 64 122 237 141 255 211 216 323 315 300 308 263 352 21 325 155 147 147 144 168 141 76 104 92 51 104 47 148 150 154 160 173 174 168 167 168 169 171 174 176 179 179 179 177 178 181 183 183 181 182 181 181 177 170 162 154 150 145 139 134 127 119 114 114 115 116 117 118 123 128 130 131 131 124 119 118 118 116 116 114 113 111 110 109 110 108 102 99
210 198 179 169 157 165 163 106 233 88 191 231 185 208 344 163 126 277 301 333 314 28 62 76 95 109 97 107 113 117 88 46 37 80 92 107 131 137 150 154 171 173 169 167 168 170 170 173 176 179 181 180 178 178 180 182 181 180 179 177 176 172 166 158 151 150 146 141 134 127 123 118 117 119 120 120 121 125 128 128 128 127 124 121 121 120 119 118 117 115 114 113 112 110 103 98 99
196 183 168 163 155 152 136 68 232 164 200 221 221 196 202 128 145 173 302 317 312 328 39 45 58 51 31 91 82 85 80 44 56 94 102 123 133 132 145 149 168 171 169 167 168 172 170 172 176 180 181 180 179 178 179 179 180 179 176 175 173 169 163 155 151 151 147 140 135 130 127 120 120 123 123 125 126 127 128 126 126 126 126 125 124 123 123 121 119 118 117 115 110 103 99 100 102
184 172 161 152 142 116 122 3 178 169 199 207 245 185 188 137 133 197 288 310 305 274 272 1 22 9 354 62 69 59 74 66 64 96 120 137 142 138 144 148 166 170 168 168 169 172 171 173 177 181 182 181 179 176 176 176 178 177 176 174 172 168 161 155 153 152 148 141 137 134 130 123 124 127 128 129 130 131 130 129 129 129 129 130 130 129 129 127 125 122 118 111 105 102 101 102 100
176 167 160 151 157 134 122 101 111 194 208 169 278 130 154 146 132 237 298 318 318 269 239 256 24 97 69 61 40 47 76 75 70 98 129 144 145 141 149 154 166 170 170 170 170 172 172 174 177 181 182 182 179 175 172 172 175 175 176 174 171 168 161 156 154 154 150 141 139 137 133 127 128 132 133 133 134 136 137 136 135 135 135 135 135 134 133 132 128 122 114 107 106 105 104 102 98
170 160 152 142 141 128 144 176 159 220 220 184 260 43 116 158 274 270 311 322 338 292 218 217 275 133 96 54 48 90 92 90 81 99 129 143 147 147 154 161 168 172 172 172 172 174 174 175 178 181 182 181 180 175 169 168 172 174 175 174 172 166 161 158 155 156 152 143 141 140 138 131 131 135 137 136 138 139 140 140 139 139 139 138 137 136 135 131 126 120 111 107 108 109 108 103 99
164 155 142 132 94 86 203 223 176 233 214 183 242 310 97 175 253 283 317 324 344 60 180 204 204 158 119 118 91 114 101 99 107 109 137 143 152 157 159 169 174 174 175 175 174 176 175 177 178 179 181 182 181 174 166 165 168 172 175 175 172 167 164 161 157 158 156 148 143 144 144 137 134 137 140 140 138 137 139 142 140 140 140 140 139 137 135 130 126 119 111 109 112 113 109 103 98
162 156 139 151 89 31 198 185 210 234 196 194 253 273 276 257 242 275 300 293 281 348 179 176 164 167 150 146 106 141 112 92 111 125 147 145 156 166 169 177 179 176 177 176 175 178 178 178 178 179 180 183 181 174 164 159 164 170 172 173 171 168 166 163 162 163 161 153 149 151 151 146 143 142 143 143 139 137 139 143 142 141 141 140 139 137 135 132 125 115 111 114 116 114 107 101 94
160 154 131 158 177 97 160 218 247 229 245 254 259 258 267 270 247 256 261 242 271 268 189 167 162 193 159 150 88 140 135 92 115 137 154 155 164 171 176 183 182 179 179 177 173 177 180 179 180 180 181 184 180 172 163 155 160 166 169 170 168 168 167 167 168 167 164 158 157 158 157 154 152 150 148 149 144 141 142 145 145 144 143 142 140 140 139 134 123 113 115 120 118 112 104 96 90
154 141 132 130 175 219 218 247 244 237 261 257 272 269 273 275 246 237 244 257 262 208 177 172 173 134 149 148 100 147 160 126 143 154 160 163 169 174 178 184 184 181 180 178 175 178 182 181 181 181 181 183 178 171 163 156 155 163 168 167 165 168 170 172 172 167 163 167 167 166 170 164 158 156 153 154 150 146 146 148 149 147 146 146 145 145 143 138 125 117 121 122 115 107 100 92 88
150 120 136 139 191 228 222 247 250 272 278 275 285 278 290 290 248 218 219 237 205 172 171 176 160 137 146 124 129 170 166 146 161 160 164 166 167 173 179 180 181 183 182 183 184 185 185 183 181 181 181 179 176 170 163 158 154 159 167 166 166 168 171 175 174 169 170 181 179 175 184 171 158 159 157 158 155 150 150 150 152 151 151 151 149 149 149 146 131 122 124 121 112 103 96 90 87
164 117 152 185 203 221 212 257 273 292 285 296 312 323 335 302 223 188 190 183 163 159 170 181 158 155 145 82 163 190 166 150 160 163 167 164 158 167 177 173 174 181 183 186 188 187 186 184 181 178 178 177 173 170 164 160 156 157 164 166 166 167 172 175 175 182 187 192 186 184 195 176 161 163 161 163 158 154 154 153 156 157 156 154 153 156 159 158 137 127 127 121 110 102 96 91 87
171 137 172 177 191 195 171 252 283 300 305 344 324 337 341 303 248 203 158 145 152 149 173 198 172 160 138 91 171 197 174 154 156 160 155 146 143 155 166 163 169 179 181 183 183 184 183 180 178 174 173 173 172 171 166 162 160 159 161 164 166 165 166 162 161 178 186 189 187 188 196 180 168 173 168 167 165 160 159 162 164 164 163 160 160 165 170 171 147 132 129 121 110 102 97 93 89
168 167 191 157 149 179 179 264 282 271 341 38 327 346 354 9 340 171 138 127 153 150 169 188 176 160 151 150 170 190 175 153 155 150 139 137 137 144 153 155 167 180 181 182 182 181 179 175 173 170 169 171 172 171 167 165 165 163 161 161 163 161 158 153 147 158 161 167 176 180 189 183 178 183 177 170 168 168 168 173 174 171 171 168 168 174 181 183 164 140 130 120 111 105 100 96 92
171 155 143 130 149 193 217 235 349 170 35 56 345 353 360 33 28 137 133 113 150 158 153 165 175 170 177 169 162 192 178 150 157 149 138 137 138 143 152 156 165 178 179 180 181 179 179 177 174 173 171 172 173 173 170 168 171 170 168 164 163 163 164 162 156 159 156 155 162 168 180 184 184 187 187 177 169 172 174 180 185 179 176 176 175 180 188 191 185 159 137 124 115 110 105 100 95
168 137 114 163 170 202 202 184 140 178 27 236 348 356 4 44 35 61 7 122 135 145 152 162 180 171 154 150 102 183 178 155 162 156 144 139 140 148 154 158 162 172 173 172 179 180 179 178 177 179 176 174 177 178 175 174 176 177 177 174 171 174 176 176 174 174 170 165 162 167 176 180 183 186 192 191 174 169 175 189 195 186 181 181 181 185 192 197 199 184 151 134 124 117 113 108 99
163 141 158 174 186 204 195 191 184 150 346 291 354 357 355 12 24 50 56 125 133 141 156 173 181 168 142 161 140 174 170 164 168 160 150 144 144 149 155 159 161 167 170 170 177 179 181 183 183 184 181 180 183 182 181 182 184 186 187 184 181 181 184 188 190 187 180 180 178 180 183 181 183 183 191 198 184 169 172 190 199 192 188 184 184 187 194 200 204 203 173 148 140 129 121 117 106
162 156 183 193 198 203 193 193 182 124 336 325 351 354 343 340 23 85 79 107 128 148 168 170 182 216 192 185 193 173 168 171 173 165 156 152 149 150 154 160 163 166 170 172 176 179 182 188 191 191 188 187 187 186 187 189 192 194 194 193 192 191 195 196 193 194 189 187 191 190 190 192 192 186 188 195 190 174 168 187 204 196 190 189 186 187 194 202 206 209 195 169 155 142 128 122 115
165 120 197 213 197 205 211 201 199 237 308 317 332 345 333 324 331 132 81 99 144 169 178 174 190 217 194 177 176 166 170 174 174 169 162 161 159 156 155 161 166 167 173 176 177 180 183 188 195 196 193 190 189 190 191 194 196 198 199 199 201 198 197 196 195 200 198 195 200 197 194 201 198 188 190 192 192 183 171 187 207 199 191 192 189 189 194 202 208 211 204 188 170 153 137 127 122
182 166 214 227 207 249 250 239 251 259 288 306 325 331 336 342 302 214 212 165 200 206 201 201 197 194 171 159 162 163 172 175 172 169 167 167 165 164 164 166 169 170 176 179 178 182 184 189 196 197 195 192 191 193 194 196 199 203 204 202 201 198 196 197 202 208 204 201 203 202 201 203 194 185 195 200 200 196 183 190 205 199 193 194 192 191 195 201 208 212 208 196 182 166 149 137 133
170 190 223 225 178 245 247 250 263 271 282 285 320 322 333 355 337 223 183 156 202 235 219 208 197 191 171 159 161 166 174 175 172 170 168 169 168 169 169 171 173 176 180 181 182 185 188 193 198 198 195 193 194 195 198 200 204 208 209 207 206 205 203 203 207 208 203 201 203 205 205 202 196 189 194 200 202 203 198 201 209 201 195 195 194 194 197 202 208 212 210 200 189 178 165 152 144
161 197 232 222 189 239 261 271 280 284 284 284 316 317 315 336 337 216 192 162 133 202 201 159 164 187 175 167 168 171 179 180 180 179 175 176 176 171 170 173 174 181 187 186 189 194 194 196 198 201 198 196 197 199 202 204 208 213 214 214 214 212 211 210 209 207 204 204 206 208 207 206 204 197 196 200 201 203 204 211 217 203 194 195 195 196 198 202 207 212 212 205 194 183 175 169 157
191 198 229 231 226 237 267 280 290 290 284 289 299 299 301 320 332 237 220 262 123 166 173 150 169 189 181 180 182 182 186 188 189 185 179 182 183 177 174 177 176 182 192 191 195 201 199 196 197 201 201 199 199 200 202 204 208 213 216 217 216 214 214 214 213 210 208 207 207 208 210 208 204 201 199 201 201 203 206 213 218 201 191 195 196 196 197 200 205 210 212 207 199 188 180 178 168
212 209 205 235 236 241 262 278 289 291 283 287 290 286 288 265 322 233 217 261 245 181 175 173 181 192 190 192 194 192 190 189 187 179 178 186 188 184 178 184 184 184 194 196 198 202 201 199 198 200 204 202 200 201 203 206 209 211 213 214 214 216 216 216 216 214 210 209 208 207 210 207 203 204 202 201 201 204 208 209 212 199 190 194 196 197 196 199 203 206 210 208 201 193 186 183 175
216 213 203 239 247 251 268 281 286 290 287 292 285 267 280 215 247 189 201 239 227 216 198 181 183 190 192 195 198 198 192 184 181 180 184 189 189 188 183 188 193 190 196 202 205 204 203 203 203 202 205 204 202 202 204 209 211 209 211 213 215 216 217 219 218 214 211 211 209 208 209 208 205 205 202 202 203 207 208 203 202 198 194 194 195 197 196 198 201 204 207 206 203 197 192 190 182
208 207 202 235 252 265 277 283 282 288 293 293 268 251 39 52 228 205 209 201 190 208 200 186 188 191 191 193 198 199 191 182 186 187 189 193 190 191 191 192 197 196 197 206 212 210 205 205 206 206 205 205 204 202 204 209 210 208 211 215 219 219 216 221 219 213 211 209 210 212 213 213 211 207 203 204 205 206 207 200 198 199 199 197 197 199 198 198 200 203 204 204 203 199 196 194 190
186 198 210 237 254 272 277 277 278 285 288 258 242 261 46 97 205 204 203 189 180 186 187 189 188 192 194 193 197 198 191 187 192 189 189 194 192 194 197 194 198 201 202 209 215 213 210 209 207 208 207 205 204 204 206 210 212 211 213 219 222 217 216 220 218 214 211 208 212 216 217 218 218 212 204 202 198 198 202 199 199 203 202 199 199 200 200 199 200 202 203 201 201 200 198 196 195
175 180 202 240 255 272 265 265 275 277 282 248 225 237 45 154 189 189 178 174 174 183 189 190 189 193 194 194 198 197 195 195 195 191 190 195 196 197 196 192 196 202 207 212 217 217 215 218 215 211 210 209 206 209 214 217 219 218 216 223 225 213 214 219 217 217 216 214 216 217 219 222 221 214 206 200 193 195 203 200 198 203 202 201 202 202 200 200 200 202 201 199 199 200 200 199 200
165 163 187 235 246 267 245 251 270 239 278 237 185 188 244 198 207 200 179 171 174 190 196 189 192 197 194 198 200 196 200 203 200 199 198 200 204 201 191 189 197 202 209 213 219 221 221 227 225 217 214 213 211 213 222 226 225 226 222 225 228 214 211 219 217 221 224 221 221 223 226 226 222 216 211 203 195 200 207 203 199 199 199 201 204 204 202 202 202 203 201 198 198 200 200 201 203
156 152 201 234 219 254 223 248 245 205 280 180 170 205 215 226 264 212 191 187 182 189 199 192 191 197 198 202 202 199 203 206 207 211 209 205 208 205 188 187 197 202 209 214 219 223 225 230 229 222 218 217 217 216 224 233 230 234 237 231 230 219 212 221 223 222 226 225 226 230 228 225 222 218 215 209 206 211 212 209 206 199 197 200 203 205 205 205 205 205 203 201 199 200 200 202 205
151 141 165 211 213 230 198 19 173 187 289 176 189 226 191 218 272 243 208 198 194 193 193 190 188 192 199 204 205 202 205 211 215 218 214 206 209 206 188 189 196 203 210 214 223 231 234 237 232 224 220 220 226 225 227 237 232 229 242 240 231 222 219 231 231 220 221 225 227 226 219 219 222 222 218 214 215 218 216 214 214 208 204 204 204 205 208 209 208 205 205 204 202 200 200 203 206
119 167 163 140 198 233 358 80 176 187 63 169 201 220 171 242 283 277 226 201 206 203 189 187 192 192 197 204 206 203 207 217 219 218 211 203 206 197 188 198 203 208 214 219 231 238 241 246 242 232 227 224 231 236 235 243 241 229 238 244 235 229 227 234 230 222 225 227 224 219 214 214 220 223 220 217 217 217 220 221 221 218 215 215 213 208 209 212 211 208 206 206 206 203 201 205 209
329 211 162 148 182 202 13 102 112 44 120 158 238 222 134 279 323 307 212 200 213 219 199 190 194 195 199 204 208 206 210 217 216 214 205 199 204 191 189 203 210 214 218 225 233 237 242 249 250 245 238 231 235 243 244 248 250 240 237 240 241 240 233 230 227 225 230 230 222 219 220 219 224 230 227 228 228 223 227 229 225 223 221 223 223 215 212 215 214 211 207 205 206 207 206 208 212
167 207 143 138 179 188 188 147 43 32 153 153 178 252 212 246 331 330 204 203 207 222 216 194 193 197 201 206 209 209 216 219 212 206 207 210 207 190 192 204 212 217 217 224 231 234 241 247 254 255 245 241 245 249 250 252 253 247 238 238 242 241 233 229 227 224 226 229 227 226 229 232 237 243 240 240 238 234 233 230 226 222 222 225 224 218 215 218 217 212 209 206 204 207 210 210 212
163 169 154 130 154 178 180 176 39 23 34 140 156 236 241 253 295 291 220 209 209 227 237 193 195 198 202 209 211 214 221 223 209 204 219 226 210 189 196 207 215 220 222 228 234 239 246 251 260 265 257 255 258 257 252 250 250 244 240 240 235 231 233 233 229 223 223 231 235 234 235 239 243 245 245 241 237 238 235 229 225 220 222 225 220 216 214 218 219 212 209 208 205 205 209 211 213
164 164 164 149 150 163 187 209 16 28 23 159 184 217 221 283 303 330 307 225 219 236 298 249 207 204 211 213 214 220 223 223 216 219 230 231 207 189 197 210 221 228 233 238 243 248 254 261 266 269 268 264 261 261 258 258 256 243 238 241 235 232 234 234 230 223 226 235 240 241 242 241 243 243 244 243 239 240 236 229 225 220 221 223 218 216 213 214 216 209 206 208 208 206 205 208 211
139 132 143 135 150 157 188 231 58 58 218 154 187 175 58 356 339 348 338 254 221 236 258 253 222 218 225 224 224 227 228 233 234 234 240 237 210 195 199 210 224 234 241 246 251 255 258 264 269 270 271 271 267 261 256 260 260 248 244 246 243 240 234 231 232 227 230 241 244 247 250 241 242 245 245 245 243 240 236 231 226 220 220 221 218 217 212 210 209 204 201 204 209 210 206 205 206
123 133 138 130 176 160 173 254 46 13 266 120 184 89 57 19 8 358 350 42 88 306 243 220 227 227 230 234 237 235 236 243 245 247 248 244 221 204 202 212 228 238 245 250 255 260 262 264 267 268 267 267 270 271 264 262 260 255 259 257 249 243 234 231 239 239 240 249 249 245 247 243 243 246 247 247 244 240 236 233 228 220 217 218 217 214 211 211 210 203 200 201 204 208 209 209 206
121 134 151 159 176 165 232 243 33 1 347 124 113 84 58 12 3 11 14 33 32 35 71 77 196 229 233 238 240 236 237 244 249 254 253 250 237 219 210 218 231 238 244 249 255 262 265 267 271 272 269 265 266 269 267 266 264 264 269 265 252 245 239 235 243 254 257 258 258 250 250 252 251 249 249 249 247 242 234 231 228 221 216 215 214 211 211 213 213 208 205 203 203 204 207 210 207
130 145 168 171 162 184 187 163 102 44 30 88 120 96 68 21 2 27 27 20 10 51 72 63 61 72 239 242 246 241 241 250 254 257 258 253 241 230 221 225 234 239 245 250 254 261 267 271 277 279 278 277 281 283 276 273 274 269 267 265 254 243 241 239 240 249 252 254 258 254 251 255 256 253 250 249 247 241 232 228 225 220 217 214 212 212 214 216 214 212 211 208 208 207 204 202 201
162 176 179 167 171 198 170 141 219 162 77 94 144 119 75 20 1 28 19 1 3 44 59 50 47 49 57 232 254 253 252 261 262 259 260 256 244 234 228 230 238 242 247 252 255 262 268 274 280 283 284 281 285 290 290 289 286 275 269 268 257 239 238 240 238 238 241 247 253 253 253 254 255 255 250 245 243 238 231 225 219 216 217 215 212 214 219 221 217 216 216 212 210 210 207 203 198
181 216 203 181 180 192 138 79 302 175 146 127 203 177 111 11 348 32 3 350 23 47 52 44 37 39 44 46 336 264 261 267 264 259 261 261 251 234 224 227 238 243 249 254 258 263 268 274 279 283 287 284 282 284 283 283 282 279 280 278 260 238 238 243 244 246 256 264 263 257 253 253 253 255 250 244 240 234 228 221 212 211 215 214 212 214 221 224 220 218 216 213 211 210 211 211 204
183 206 191 177 171 170 159 150 182 197 169 112 298 232 147 62 338 12 347 340 34 48 49 42 35 34 31 25 22 17 337 285 267 263 263 266 258 238 220 220 231 242 249 254 259 263 267 270 273 278 284 286 286 285 280 277 274 274 279 279 267 248 242 247 251 257 266 274 272 259 249 246 247 249 247 242 237 229 221 215 210 209 211 212 211 212 216 219 217 216 213 212 214 211 212 215 213
178 180 171 170 164 168 171 171 194 223 296 159 332 282 144 139 83 355 331 315 27 42 41 38 35 32 26 21 22 31 35 39 16 298 288 281 267 242 223 221 231 241 248 254 259 263 267 270 273 279 285 290 295 293 288 281 272 268 269 271 267 258 246 245 251 257 264 269 268 258 246 240 240 240 241 238 230 221 214 210 207 206 204 206 210 212 213 214 212 211 211 211 213 215 217 220 223
196 165 165 170 158 165 172 173 189 19 268 209 165 179 169 142 347 334 327 322 38 37 36 39 39 33 32 32 33 43 45 43 48 31 355 309 280 252 232 230 235 242 249 257 262 267 271 275 281 286 290 295 300 301 297 289 279 271 268 268 267 265 258 252 251 254 259 264 267 261 249 240 237 234 233 231 223 215 211 208 206 206 204 203 207 210 211 211 208 209 213 213 213 219 221 224 230
148 130 123 118 91 107 149 171 166 127 229 222 172 188 196 141 193 288 356 65 45 38 43 48 45 43 42 43 44 50 51 49 51 50 40 22 325 288 256 244 244 249 257 265 271 275 278 282 287 292 297 300 302 303 298 291 284 276 271 271 271 270 267 263 259 255 255 259 264 263 253 243 239 235 230 225 218 212 210 209 207 207 206 204 205 209 211 208 205 208 214 216 217 223 223 225 230
127 125 113 105 91 97 103 95 145 155 210 228 183 267 232 172 166 236 290 52 56 54 57 54 50 51 49 51 55 55 58 59 61 62 52 31 0 323 291 271 264 264 269 275 280 283 287 291 294 297 302 306 311 311 305 295 286 281 278 277 277 277 274 269 263 259 255 256 261 264 256 246 241 238 233 227 217 211 211 211 208 206 205 204 205 209 212 210 209 208 211 216 218 223 224 224 223
132 135 141 134 127 145 119 100 170 187 200 216 10 309 234 202 158 167 180 71 69 61 58 59 56 58 57 58 60 58 59 60 61 66 64 57 48 22 330 301 288 282 282 285 289 291 294 298 300 302 304 309 316 318 313 303 291 284 281 282 283 280 275 267 260 259 258 256 260 265 258 247 242 238 233 230 222 212 212 212 209 205 204 205 206 208 211 214 215 211 211 216 217 218 218 217 216
166 148 161 163 156 163 163 160 173 190 191 55 7 262 221 203 100 141 150 78 63 54 65 73 66 66 64 61 61 60 58 57 55 55 54 52 46 31 3 331 309 301 299 297 298 297 300 303 303 305 307 312 318 320 318 308 295 286 280 281 282 276 268 263 258 258 260 261 264 266 258 248 246 241 233 230 223 212 210 210 207 205 206 207 207 206 208 212 215 214 213 213 214 214 213 212 214
189 167 172 177 165 164 170 162 155 180 175 40 344 261 205 138 112 142 146 84 62 65 77 82 78 76 71 67 65 61 58 58 58 53 50 50 42 31 12 348 325 313 307 302 302 301 301 301 300 301 304 309 315 319 320 313 300 289 280 281 282 275 266 264 263 263 263 267 271 268 261 254 251 247 239 230 218 208 206 206 205 205 207 209 207 205 207 211 213 213 212 210 210 212 209 208 209
183 171 175 181 178 177 173 161 156 157 135 95 119 205 201 153 113 147 147 103 77 86 91 87 82 78 72 68 60 54 55 59 61 59 55 54 50 42 27 7 346 329 317 306 302 299 298 297 294 295 297 301 307 311 312 306 295 289 284 285 290 287 278 271 270 268 265 270 276 269 262 261 257 250 243 229 212 204 203 204 204 206 209 210 208 206 208 211 212 210 208 208 208 207 205 203 203
175 151 164 200 194 145 119 106 103 128 122 103 122 272 297 7 13 175 145 117 106 107 99 87 78 71 65 62 57 55 58 62 65 65 61 57 55 50 41 30 16 1 345 323 308 299 294 290 287 289 291 294 299 302 300 291 287 289 286 283 284 282 276 271 270 269 268 273 280 274 263 263 260 249 240 223 209 205 203 204 206 207 210 211 209 209 210 211 211 209 209 209 205 203 201 200 202
137 176 185 198 142 111 118 105 36 95 148 119 51 263 158 200 218 177 160 157 137 117 99 87 78 71 67 62 62 66 67 69 69 70 68 61 51 44 40 36 27 16 4 342 322 308 297 290 286 286 287 289 291 292 289 284 282 283 279 274 272 269 266 265 263 268 277 281 290 288 271 260 254 244 236 222 210 206 204 206 208 209 211 211 210 211 211 211 209 208 208 205 201 200 198 197 202
132 183 171 129 79 79 109 129 113 166 153 111 31 186 182 195 171 156 175 190 161 134 105 92 82 77 74 65 66 69 70 77 79 78 75 61 40 35 36 34 27 22 16 360 344 333 325 320 314 308 303 300 298 294 289 286 284 280 274 268 267 266 264 262 260 270 292 298 302 298 275 256 250 242 231 218 210 207 206 207 209 210 211 211 211 211 211 211 209 207 203 198 197 197 195 195 197
94 156 151 135 169 177 151 143 162 162 136 112 112 258 224 218 182 169 184 186 161 138 109 98 88 79 75 67 68 70 70 78 82 81 74 57 44 46 49 51 45 30 15 2 355 354 351 343 335 326 319 313 307 302 296 295 296 291 282 271 267 270 268 263 260 263 292 295 281 279 263 243 240 232 219 211 210 208 206 208 209 209 211 211 210 210 210 211 209 205 200 197 197 195 192 194 195
48 125 146 141 212 171 162 140 163 164 140 126 125 57 243 225 197 181 181 173 155 133 108 102 94 81 77 69 66 68 70 73 73 75 73 64 60 58 50 47 37 18 3 355 354 356 353 344 339 338 332 321 311 306 302 302 302 302 295 281 272 274 271 265 260 254 266 281 265 257 244 225 214 209 209 209 210 208 205 207 209 211 212 210 209 208 206 208 210 208 203 201 200 195 190 193 194
145 156 168 176 81 118 135 102 58 159 152 140 136 187 237 215 95 174 170 159 147 129 116 110 96 86 80 74 73 69 68 72 72 74 77 75 68 58 42 24 8 354 348 348 347 344 340 336 339 344 344 337 324 313 308 308 308 310 307 289 268 264 264 263 259 250 253 268 261 248 233 214 200 200 205 208 210 207 204 207 212 215 215 213 211 208 204 203 205 207 206 203 201 195 191 193 195
160 173 180 171 143 145 160 161 110 70 125 144 154 185 197 75 83 175 159 141 136 130 121 113 98 91 84 81 89 83 76 81 85 84 83 78 67 57 43 16 4 4 5 2 354 342 338 341 344 345 347 346 337 324 315 311 308 312 318 302 266 252 257 264 262 244 241 255 259 245 224 208 199 200 202 205 209 208 207 208 211 215 218 217 214 210 205 201 199 201 204 201 197 194 192 193 196